This demonstration page uses our WeatherBlox Daily Observations layout. Learn more.

Left ArrowRight Arrow

38.20091, -84.87328

Hourly Observations for July 23, 2020

Temp ( °F °C ) Dew Point ( °F °C ) Humidity (%) Winds ( mph kmh ) Pressure ( in mb ) Visibility ( mi km ) Precip ( " mm )
12:53 am 00:53 Mostly Clear 74 23.3 70 21.1 88 88 SW 5 7 30.04 1017 10 16 0.00 0.00
1:53 am 01:53 Clear 73 22.8 70 21.1 90 90 SW 5 7 30.05 1018 10 16 0.00 0.00
2:53 am 02:53 Mostly Clear 74 23.3 70 21.1 88 88 WSW 5 7 30.04 1017 10 16 0.00 0.00
3:53 am 03:53 Clear 74 23.3 69 20.6 85 85 SW 7 11 30.04 1017 10 16 0.00 0.00
4:53 am 04:53 Mostly Clear 72 22.2 69 20.6 91 91 SW 5 7 30.05 1018 10 16 0.00 0.00
5:53 am 05:53 Mostly Cloudy 73 22.8 70 21.1 90 90 SSW 3 6 30.06 1018 10 16 0.00 0.00
6:53 am 06:53 Mostly Cloudy 73 22.8 70 21.1 90 90 Calm 30.07 1018 10 16 0.00 0.00
7:53 am 07:53 Cloudy 74 23.3 71 21.7 91 91 Calm 30.09 1019 10 16 0.00 0.00
8:53 am 08:53 Cloudy with Light Rain 75 23.9 72 22.2 90 90 SW 3 6 30.11 1020 10 16 0.01 0.25
9:53 am 09:53 Mostly Cloudy with Light Rain 76 24.4 72 22.2 88 88 SSW 6 9 30.11 1020 10 16 0.01 0.25
10:53 am 10:53 Cloudy 78 25.6 73 22.8 85 85 SW 9 15 30.11 1020 10 16 0.00 0.00
11:23 am 11:23 Mostly Cloudy 78 25.6 73 22.8 85 85 SW 9 15 30.11 1019 10 16 0.00 0.00
11:32 am 11:32 Mostly Cloudy 79 26.1 73 22.8 82 82 SW 8 13 30.10 1019 10 16 0.00 0.00
11:53 am 11:53 Cloudy with Light Rain 78 25.6 72 22.2 82 82 SW 9 15 30.12 1020 8 13 0.01 0.25
12:53 pm 12:53 Mostly Cloudy 78 25.6 74 23.3 87 87 SW 7 11 30.11 1020 10 16 0.04 1.02
1:08 pm 13:08 Mostly Cloudy 78 25.6 74 23.3 87 87 SW 9 15 30.11 1019 10 16 0.00 0.00
1:30 pm 13:30 Cloudy with Light Rain 77 25 73 22.8 88 88 SW 10 17 30.11 1020 10 16 0.00 0.00
1:38 pm 13:38 Cloudy with Light Rain 77 25 72 22.2 85 85 WSW 8 13 30.10 1019 10 16 0.00 0.00
1:48 pm 13:48 Cloudy with Light Rain 77 25 73 23 89 89 SSW 9 15 30.10 1019 5 8 0.02 0.51
1:53 pm 13:53 Cloudy with Rain 76 24.4 72 22.2 88 88 SW 12 19 30.11 1020 4 6 0.04 1.02
2:07 pm 14:07 Cloudy with Light Rain 75 23.9 71 21.7 88 88 WSW 12 19 30.10 1019 10 16 0.01 0.25
2:53 pm 14:53 Cloudy 78 25.6 73 22.8 85 85 W 8 13 30.08 1019 10 16 0.01 0.25
3:45 pm 15:45 Mostly Cloudy 79 26.1 72 22.2 79 79 WSW 9 15 30.04 1017 10 16 0.00 0.00
3:53 pm 15:53 Mostly Cloudy 80 26.7 73 22.8 79 79 SW 9 15 30.06 1018 10 16 0.00 0.00
4:04 pm 16:04 Partly Cloudy 81 27.2 73 22.8 77 77 WSW 9 15 30.04 1017 10 16 0.00 0.00
4:14 pm 16:14 Mostly Cloudy 83 28.3 74 23.3 74 74 VRB 5 7 30.04 1017 10 16 0.00 0.00
4:49 pm 16:49 Partly Cloudy 84 29 73 23 70 70 WSW 3 6 30.04 1017 10 16 0.00 0.00
4:53 pm 16:53 Mostly Sunny 84 28.9 73 22.8 70 70 VRB 3 6 30.05 1018 10 16 0.00 0.00
5:53 pm 17:53 Mostly Sunny 83 28.3 72 22.2 70 70 SW 6 9 30.05 1018 10 16 0.00 0.00
6:53 pm 18:53 Mostly Sunny 83 28.3 73 22.8 72 72 SSW 5 7 30.06 1018 10 16 0.00 0.00
7:53 pm 19:53 Cloudy 81 27.2 73 22.8 77 77 SSW 6 9 30.04 1017 10 16 0.00 0.00
8:53 pm 20:53 Cloudy 79 26.1 72 22.2 79 79 Calm 30.06 1018 10 16 0.00 0.00
9:53 pm 21:53 Mostly Clear 77 25 70 21.1 79 79 WSW 3 6 30.07 1018 10 16 0.00 0.00
10:53 pm 22:53 Clear 75 23.9 69 20.6 82 82 Calm 30.07 1018 10 16 0.00 0.00
11:53 pm 23:53 Clear 74 23.3 69 20.6 85 85 Calm 30.08 1019 10 16 0.00 0.00

Powered by AerisWeather